Location: Chrząstowo
(52.0654°N, 17.1290°E)
Time: 09:07:00
(UTC+01:00)

Envisat - Pass Details

Date: 13 December 2019
Orbit: 764 x 766 km, 98.1° (Epoch: 21 January)

Event Time Altitude Azimuth Distance (km) Brightness Sun altitude
Rises 18:25:51 0° 190° (S) 3,223 6.5 -24.1°
Reaches altitude 10° 18:28:20 10° 199° (SSW) 2,301 5.8 -24.5°
Maximum altitude 18:32:57 35° 265° (W) 1,236 4.6 -25.2°
Drops below altitude 10° 18:37:36 10° 330° (NNW) 2,317 5.8 -25.9°
Sets 18:40:07 0° 340° (NNW) 3,248 6.4 -26.3°
